BEIDOU 15

Last updated on Wed May 15 2019 03:07:46 GMT+0000 (Coordinated Universal Time)

1 38775U 12050B 19134.64562624 .00000096 00000-0 00000+0 0 9995 2 38775 54.9439 149.7855 0023974 249.0726 182.0315 1.86232323 45425

Satellite not in orbit

BEIDOU 15